Saint Petersburg, FL

7:55 AM EST on December 08, 2016 (GMT -0500)
Whitted

Weather History for KSPG - November, 2012

Change the Weather History Date:

Friday, November 30, 2012

  Actual Average Record
Temperature  
Mean Temperature 68 °F -  
Max Temperature 73 °F 73 °F 84 °F (1985)
Min Temperature 63 °F 59 °F 6 °F (1998)
Cooling Degree Days 3    
Growing Degree Days 18 (Base 50)    
Moisture  
Dew Point 60 °F    
Average Humidity 76    
Maximum Humidity 84    
Minimum Humidity 64    
Precipitation  
Precipitation 0.00 in - - ()
Sea Level Pressure  
Sea Level Pressure 30.21 in    
Wind  
Wind Speed 10 mph (ENE)    
Max Wind Speed 13 mph    
Max Gust Speed -    
Visibility 10 miles    
Events      
Averages and records for this station are not official NWS values.
T = Trace of Precipitation, MM = Missing Value Source: NWS Daily Summary

Daily Weather History Graph

Daily Weather History Graph

Search for Another Location

Airport or City:

Trip Planner

Search our weather history database for the weather conditions in past years. The results will help you decide how hot, cold, wet, or windy it might be!

Date:

Astronomy

Nov. 30, 2012 Rise Set
Actual Time 7:03 AM EST 5:34 PM EST
Civil Twilight 6:38 AM EST 6:00 PM EST
Nautical Twilight 6:09 AM EST 6:29 PM EST
Astronomical Twilight 5:41 AM EST 6:57 PM EST
Moon 7:27 PM EST (11/30) 8:35 AM EST (11/30)
Length of Visible Light 11h 22m
Length of Day
10h 31m
Waning Gibbous, 96% of the Moon is Illuminated
Nov 30
Waning Gibbous
Dec 6
Last Quarter
Dec 13
New
Dec 20
First Quarter
Dec 28
Full

Hourly Weather History & Observations

Time (EST) Temp. Dew Point Humidity Pressure Visibility Wind Dir Wind Speed Gust Speed Precip Events Conditions
12:53 AM 64.9 °F 57.9 °F 78% 30.23 in 10.0 mi ENE 12.7 mph - N/A   Clear
1:53 AM 64.0 °F 57.9 °F 80% 30.22 in 10.0 mi NE 9.2 mph - N/A   Clear
2:53 AM 64.0 °F 57.9 °F 80% 30.22 in 10.0 mi NE 9.2 mph - N/A   Clear
3:53 AM 64.0 °F 59.0 °F 84% 30.21 in 10.0 mi NE 11.5 mph - N/A   Scattered Clouds
4:53 AM 64.0 °F 57.9 °F 80% 30.22 in 10.0 mi NE 11.5 mph - N/A   Clear
5:53 AM 63.0 °F 57.9 °F 84% 30.22 in 10.0 mi ENE 11.5 mph - N/A   Clear
6:53 AM 63.0 °F 57.9 °F 84% 30.23 in 10.0 mi NE 9.2 mph - N/A   Clear
7:53 AM 63.0 °F 57.9 °F 84% 30.24 in 10.0 mi ENE 10.4 mph - N/A   Clear
8:53 AM 64.0 °F 57.9 °F 80% 30.25 in 10.0 mi ENE 12.7 mph - N/A   Clear
9:53 AM 66.0 °F 59.0 °F 78% 30.25 in 10.0 mi ENE 11.5 mph - N/A   Clear
10:53 AM 68.0 °F 60.1 °F 76% 30.25 in 10.0 mi ENE 8.1 mph - N/A   Clear
11:53 AM 73.0 °F 62.1 °F 68% 30.22 in 10.0 mi ENE 4.6 mph - N/A   Clear
12:53 PM 73.9 °F 62.1 °F 66% 30.20 in 10.0 mi Calm Calm - N/A   Clear
1:53 PM 73.0 °F 61.0 °F 66% 30.17 in 10.0 mi ENE 4.6 mph - N/A   Overcast
2:53 PM 73.9 °F 61.0 °F 64% 30.16 in 10.0 mi ENE 6.9 mph - N/A   Mostly Cloudy
3:53 PM 73.0 °F 60.1 °F 64% 30.15 in 10.0 mi ENE 8.1 mph - N/A   Overcast
4:53 PM 71.1 °F 61.0 °F 70% 30.15 in 10.0 mi ENE 5.8 mph - N/A   Overcast
5:53 PM 72.0 °F 61.0 °F 68% 30.17 in 10.0 mi ENE 6.9 mph - N/A   Overcast
8:53 PM 68.0 °F 61.0 °F 78% 30.19 in 10.0 mi East 8.1 mph - N/A   Scattered Clouds
9:53 PM 66.9 °F 60.1 °F 79% 30.20 in 10.0 mi East 8.1 mph - N/A   Clear
10:53 PM 66.9 °F 60.1 °F 79% 30.20 in 10.0 mi East 9.2 mph - N/A   Clear
11:53 PM 66.0 °F 59.0 °F 78% 30.20 in 10.0 mi East 6.9 mph - N/A   Clear